This demonstration page uses our WeatherBlox Daily Observations layout. Learn more.

Left ArrowRight Arrow

Hourly Observations for March 31, 2020

Temp ( °F °C ) Dew Point ( °F °C ) Humidity (%) Winds ( mph kmh ) Pressure ( in mb ) Visibility ( mi km ) Precip ( " mm )
12:15 am 00:15 Clear 43 5.9 35 1.8 75 75 NNE 7 11 30.13 1020 10 16 N/A
12:35 am 00:35 Clear 42 5.8 35 1.6 75 75 NNE 8 13 30.12 1020 10 16 N/A
12:55 am 00:55 Clear 42 5.5 35 1.7 77 77 NE 7 11 30.12 1020 10 16 N/A
1:15 am 01:15 Clear 42 5.5 34 1.3 75 75 NNE 7 11 30.11 1020 10 16 N/A
1:35 am 01:35 Clear 42 5.3 35 1.4 76 76 NNE 6 9 30.11 1019 10 16 N/A
1:55 am 01:55 Clear 41 5.2 34 1.1 75 75 NE 3 6 30.11 1020 10 16 N/A
2:15 am 02:15 Clear 41 5 34 1.1 76 76 NE 5 7 30.11 1020 10 16 N/A
2:35 am 02:35 Clear 41 5 34 1 76 76 NE 3 6 30.11 1020 10 16 N/A
2:55 am 02:55 Clear 41 5.1 34 0.9 75 75 NNE 5 7 30.11 1020 10 16 N/A
3:15 am 03:15 Clear 41 5 33 0.6 73 73 N 5 7 30.10 1019 10 16 N/A
3:35 am 03:35 Clear 41 4.8 33 0.8 76 76 N 3 6 30.10 1019 10 16 N/A
3:55 am 03:55 Clear 40 4.5 34 1 78 78 N N/A 30.10 1019 10 16 N/A
4:35 am 04:35 Clear 40 4.5 33 0.3 74 74 N N/A 30.08 1019 10 16 N/A
5:00 am 05:00 Clear 40 4.2 33 0.5 77 77 N N/A 30.08 1019 10 16 N/A
5:15 am 05:15 Clear 39 4.1 33 0.6 78 78 N N/A 30.07 1018 10 16 N/A
5:35 am 05:35 Clear 39 4.1 33 0.8 79 79 N N/A 30.06 1018 10 16 N/A
5:55 am 05:55 Clear 39 4 33 0.5 78 78 ENE 5 7 30.06 1018 10 16 N/A
6:15 am 06:15 Clear 39 4 33 0.4 78 78 N N/A 30.06 1018 10 16 N/A
6:35 am 06:35 Clear 39 3.8 33 0.3 78 78 N N/A 30.07 1018 10 16 N/A
6:55 am 06:55 Clear 38 3.6 33 0.5 80 80 E 3 6 30.06 1018 10 16 N/A
7:15 am 07:15 Clear 38 3.5 33 0.5 81 81 E 5 7 30.04 1017 10 16 N/A
7:35 am 07:35 Sunny 38 3.2 33 0.4 82 82 ENE 5 7 30.03 1017 10 16 N/A
7:55 am 07:55 Sunny 38 3.2 33 0.3 82 82 NE 6 9 30.02 1017 10 16 N/A
8:15 am 08:15 Sunny 38 3.1 33 0.3 82 82 ENE 7 11 30.02 1017 10 16 N/A
8:35 am 08:35 Sunny 38 3.1 32 0.2 81 81 ENE 5 7 30.04 1017 10 16 N/A
8:55 am 08:55 Sunny 37 3 32 0.2 82 82 ENE 8 13 30.02 1017 10 16 N/A
9:15 am 09:15 Sunny 38 3.1 33 0.5 83 83 NNE 7 11 30.02 1017 10 16 N/A
9:35 am 09:35 Partly Cloudy 38 3.2 33 0.4 82 82 NNE 7 11 30.02 1017 10 16 N/A
9:55 am 09:55 Mostly Cloudy 38 3.1 33 0.4 83 83 N N/A 30.01 1016 10 16 N/A
10:15 am 10:15 Partly Cloudy 38 3.4 33 0.4 81 81 NE 7 11 30.02 1017 10 16 N/A
10:35 am 10:35 Mostly Cloudy 38 3.6 33 0.5 80 80 N 8 13 30.02 1017 10 16 N/A
10:55 am 10:55 Mostly Cloudy 39 3.8 33 0.3 78 78 N 7 11 30.01 1016 10 16 N/A
11:15 am 11:15 Mostly Cloudy 39 4 33 0.6 79 79 NNE 7 11 30.01 1016 10 16 N/A
11:35 am 11:35 Cloudy 39 4 33 0.3 77 77 N 8 13 30.00 1016 10 16 N/A
11:55 am 11:55 Cloudy 40 4.4 33 0.5 76 76 N 6 9 30.00 1016 10 16 N/A
12:15 pm 12:15 Cloudy 40 4.4 33 0.4 76 76 N 7 11 29.99 1016 10 16 N/A
12:35 pm 12:35 Cloudy 40 4.5 33 0.4 75 75 N 8 13 29.99 1016 10 16 N/A
12:55 pm 12:55 Cloudy 40 4.5 32 0.2 74 74 N 8 13 29.98 1015 10 16 N/A
1:15 pm 13:15 Cloudy 41 4.9 33 0.3 72 72 N 8 13 29.98 1015 10 16 N/A
1:35 pm 13:35 Cloudy 41 5.2 32 0.2 70 70 N 5 7 29.98 1015 10 16 N/A
1:55 pm 13:55 Cloudy 42 5.5 33 0.5 71 71 NNW 9 15 29.96 1015 10 16 N/A
2:15 pm 14:15 Cloudy 42 5.7 33 0.6 70 70 N 6 9 29.96 1015 10 16 N/A
2:35 pm 14:35 Cloudy 42 5.6 33 0.7 71 71 N 7 11 29.96 1015 10 16 N/A
2:55 pm 14:55 Cloudy 42 5.5 33 0.5 71 71 NW 8 13 29.95 1014 10 16 N/A
3:15 pm 15:15 Cloudy 42 5.6 33 0.6 71 71 N 5 7 29.94 1014 10 16 N/A
4:15 pm 16:15 Cloudy 42 5.5 33 0.8 72 72 N 7 11 29.93 1014 10 16 N/A
4:35 pm 16:35 Cloudy 42 5.5 34 0.9 73 73 N 9 15 29.92 1013 10 16 N/A
4:55 pm 16:55 Cloudy 42 5.5 34 0.9 73 73 N 8 13 29.92 1013 10 16 N/A
5:15 pm 17:15 Cloudy 42 5.5 34 1 73 73 NNW 10 17 29.93 1014 10 16 N/A
5:35 pm 17:35 Cloudy 42 5.3 34 1.1 75 75 N 12 19 29.94 1014 10 16 N/A
5:55 pm 17:55 Cloudy 42 5.5 34 1.2 74 74 NNW 10 17 29.94 1014 10 16 N/A
6:15 pm 18:15 Cloudy 42 5.4 34 1.2 75 75 N 9 15 29.95 1014 10 16 N/A
6:35 pm 18:35 Cloudy 42 5.3 35 1.9 79 79 NNW 10 17 29.95 1014 10 16 N/A
6:55 pm 18:55 Cloudy 40 4.6 36 2.4 86 86 N 6 9 29.96 1014 10 16 N/A
7:15 pm 19:15 Cloudy 40 4.5 37 2.6 88 88 N 8 13 29.97 1015 10 16 N/A
7:35 pm 19:35 Cloudy 40 4.7 37 2.5 86 86 N 9 15 29.97 1015 10 16 N/A
7:55 pm 19:55 Cloudy 41 5 36 2.3 83 83 NNW 6 9 29.98 1015 10 16 N/A
8:15 pm 20:15 Cloudy 41 4.9 36 2.3 83 83 N 9 15 29.98 1015 7 11 N/A
8:35 pm 20:35 Cloudy 40 4.2 38 3.2 93 93 NNW 7 11 29.98 1015 7 11 N/A
8:55 pm 20:55 Cloudy 40 4.2 38 3.1 93 93 N 8 13 29.98 1015 10 16 N/A
9:15 pm 21:15 Cloudy 40 4.5 37 2.5 87 87 N 7 11 29.99 1016 10 16 N/A
9:35 pm 21:35 Cloudy 40 4.5 37 2.5 87 87 N 8 13 29.99 1016 10 16 N/A
9:55 pm 21:55 Cloudy 40 4.5 37 2.7 88 88 NNW 7 11 29.99 1016 10 16 N/A
10:15 pm 22:15 Cloudy 40 4.3 37 3 91 91 NNW 6 9 29.99 1016 10 16 N/A
10:35 pm 22:35 Cloudy 40 4.3 38 3.1 92 92 NNW 5 7 29.99 1016 10 16 N/A
10:55 pm 22:55 Cloudy 40 4.3 38 3.2 93 93 NNW 7 11 29.99 1016 10 16 N/A
11:15 pm 23:15 Cloudy 40 4.2 38 3.5 95 95 NNW 6 9 30.00 1016 7 11 N/A
11:35 pm 23:35 Cloudy 39 4.1 38 3.2 94 94 N 12 19 30.00 1016 7 11 N/A
11:55 pm 23:55 Cloudy 39 4.1 38 3.5 96 96 NNW 6 9 30.00 1016 10 16 N/A

Powered by AerisWeather